{"data":{"norad_id":38755,"intl_designator":"2012-047A","name":"SPOT 6","alt_names":[],"object_type":"PAYLOAD","status":"ACTIVE","operator":null,"country":"FR","launch_date":"2012-09-09","launch_site_code":"SRILR","launch_vehicle":null,"mission":null,"orbit_class":"UNKNOWN","rcs_meters":3.797,"size_class":null,"mass_kg":null,"dimensions":null,"purposes":["earth_obs"],"wikipedia_slug":null,"has_3d_model":false,"image_url":null,"decayed_at":null,"tle_current":{"epoch":"2026-05-25T03:32:40.284672Z","epoch_age_seconds":58438,"freshness":"FRESH","line1":"1 38755U 12047A   26145.14768848  .00000036  00000+0  17515-4 0  9997","line2":"2 38755  98.2122 212.7245 0001284  97.1155 263.0190 14.58545655729692","mean_motion":14.58545655,"eccentricity":0.0001284,"inclination_deg":98.2122,"raan_deg":212.7245,"arg_perigee_deg":97.1155,"mean_anomaly_deg":263.019,"bstar":1.7515e-5,"rev_number":72969,"period_min":98.728483065551,"perigee_km":696.96527826659,"apogee_km":698.78239784981,"semimajor_km":7076.0108380582,"source":"CELESTRAK","updated_at":"2026-05-25T13:38:12.780858Z"}}}